Lima, OH

2:40 PM EST on February 26, 2017 (GMT -0500)
Lima Allen County

Weather History for KAOH - February, 2013

Change the Weather History Date:

Friday, February 22, 2013

  Actual Average (KFDY) Record (KFDY)
Temperature  
Mean Temperature 32 °F -  
Max Temperature 39 °F 43 °F 64 °F (1983)
Min Temperature 24 °F 26 °F -7 °F (1963)
Degree Days  
Heating Degree Days 34    
Moisture  
Dew Point 26 °F    
Average Humidity 83    
Maximum Humidity 93    
Minimum Humidity 72    
Precipitation  
Precipitation 0.02 in - - ()
Sea Level Pressure  
Sea Level Pressure 29.95 in    
Wind  
Wind Speed 14 mph (SSE)    
Max Wind Speed 21 mph    
Max Gust Speed 30 mph    
Visibility 5 miles    
Events Rain , Snow    
Averages and records for this station are not official NWS values.
T = Trace of Precipitation, MM = Missing Value Source: NWS Daily Summary

Daily Weather History Graph

Daily Weather History Graph

Search for Another Location

Airport or City:

Trip Planner

Search our weather history database for the weather conditions in past years. The results will help you decide how hot, cold, wet, or windy it might be!

Date:

Astronomy

Feb. 22, 2013 Rise Set
Actual Time 7:20 AM EST 6:19 PM EST
Civil Twilight 6:52 AM EST 6:47 PM EST
Nautical Twilight 6:20 AM EST 7:19 PM EST
Astronomical Twilight 5:48 AM EST 7:50 PM EST
Moon 3:29 PM EST (2/22) 5:05 AM EST (2/22)
Length of Visible Light 11h 54m
Length of Day
10h 59m
Waxing Gibbous, 90% of the Moon is Illuminated
Feb 22
Waxing Gibbous
Feb 25
Full
Mar 4
Last Quarter
Mar 11
New
Mar 19
First Quarter

Hourly Weather History & Observations

Time (EST) Temp. Windchill Dew Point Humidity Pressure Visibility Wind Dir Wind Speed Gust Speed Precip Events Conditions
12:53 AM 25.0 °F 13.1 °F 17.1 °F 72% 30.15 in 10.0 mi East 13.8 mph 24.2 mph N/A   Overcast
1:53 AM 25.0 °F 12.2 °F 17.1 °F 72% 30.12 in 10.0 mi East 16.1 mph - 0.00 in   Overcast
2:21 AM 24.8 °F 11.9 °F 17.6 °F 74% 30.06 in 1.8 mi East 16.1 mph - 0.00 in Snow Light Snow
2:49 AM 24.8 °F 11.5 °F 19.4 °F 80% 30.04 in 0.8 mi East 17.3 mph 23.0 mph 0.00 in Snow Light Snow
3:01 AM 24.8 °F 11.1 °F 19.4 °F 80% 30.02 in 0.8 mi East 18.4 mph - 0.00 in Snow Light Snow
3:09 AM 24.8 °F 11.1 °F 19.4 °F 80% 30.01 in 1.2 mi East 18.4 mph - 0.00 in Snow Light Snow
3:28 AM 24.8 °F 11.9 °F 19.4 °F 80% 30.00 in 2.0 mi East 16.1 mph - 0.01 in Snow Light Snow
3:36 AM 24.8 °F 11.1 °F 19.4 °F 80% 30.00 in 4.0 mi East 18.4 mph - 0.01 in Snow Light Snow
3:45 AM 24.8 °F 10.7 °F 19.4 °F 80% 29.99 in 6.0 mi East 19.6 mph 24.2 mph 0.01 in Snow Light Snow
3:53 AM 24.1 °F 10.6 °F 19.0 °F 81% 30.02 in 4.0 mi East 17.3 mph - 0.01 in Snow Light Snow
4:25 AM 24.8 °F 10.3 °F 19.4 °F 80% 29.94 in 5.0 mi East 20.7 mph 28.8 mph 0.00 in Rain Light Freezing Rain
4:33 AM 24.8 °F 11.1 °F 19.4 °F 80% 29.94 in 5.0 mi East 18.4 mph - 0.00 in Rain Light Freezing Rain
4:43 AM 24.8 °F 11.1 °F 19.4 °F 80% 29.94 in 6.0 mi East 18.4 mph 29.9 mph 0.00 in Rain Light Freezing Rain
4:53 AM 25.0 °F 11.7 °F 21.0 °F 85% 29.98 in 9.0 mi East 17.3 mph - 0.00 in   Overcast
5:05 AM 24.8 °F 10.7 °F 21.2 °F 86% 29.92 in 10.0 mi East 19.6 mph - N/A   Overcast
5:18 AM 24.8 °F 11.5 °F 21.2 °F 86% 29.93 in 5.0 mi East 17.3 mph 25.3 mph 0.00 in Rain Light Freezing Rain
5:37 AM 24.8 °F 11.5 °F 21.2 °F 86% 29.92 in 5.0 mi East 17.3 mph - 0.00 in Rain Light Freezing Rain
5:53 AM 26.1 °F 14.0 °F 21.9 °F 84% 29.95 in 3.0 mi ESE 15.0 mph 23.0 mph 0.00 in Rain Light Freezing Rain
6:38 AM 26.6 °F 14.7 °F 23.0 °F 86% 29.90 in 3.0 mi ESE 15.0 mph 24.2 mph 0.00 in Rain Light Freezing Rain
6:53 AM 27.0 °F 16.1 °F 23.0 °F 85% 29.94 in 2.5 mi ESE 12.7 mph - 0.00 in Rain Light Freezing Rain
7:07 AM 26.6 °F 15.7 °F 23.0 °F 86% 29.90 in 3.0 mi ESE 12.7 mph - 0.00 in Rain Light Freezing Rain
7:51 AM 28.4 °F 18.5 °F 24.8 °F 86% 29.89 in 2.0 mi SE 11.5 mph - 0.00 in Rain Light Freezing Rain
7:53 AM 28.0 °F 18.6 °F 25.0 °F 88% 29.93 in 2.0 mi SE 10.4 mph - 0.00 in Rain Light Freezing Rain
8:37 AM 28.4 °F 22.2 °F 26.6 °F 93% 29.90 in 2.5 mi SE 5.8 mph - 0.00 in   Overcast
8:53 AM 28.9 °F 22.8 °F 26.1 °F 89% 29.94 in 3.0 mi SE 5.8 mph - 0.00 in   Overcast
9:53 AM 30.9 °F 22.2 °F 28.9 °F 92% 29.92 in 4.0 mi SSE 10.4 mph - N/A   Overcast
10:51 AM 33.8 °F 25.3 °F 30.2 °F 87% 29.88 in 3.0 mi South 11.5 mph - N/A   Overcast
10:53 AM 33.1 °F 24.9 °F 30.9 °F 92% 29.91 in 3.0 mi South 10.4 mph - N/A   Overcast
11:03 AM 33.8 °F 25.8 °F 30.2 °F 87% 29.88 in 2.5 mi South 10.4 mph - N/A   Overcast
11:16 AM 33.8 °F 27.7 °F 30.2 °F 87% 29.88 in 1.5 mi South 6.9 mph - N/A   Overcast
11:42 AM 35.6 °F 28.6 °F 32.0 °F 87% 29.88 in 2.0 mi South 9.2 mph - N/A   Overcast
11:53 AM 35.1 °F 27.9 °F 33.1 °F 92% 29.91 in 2.0 mi South 9.2 mph - N/A   Overcast
12:34 PM 35.6 °F 29.2 °F 33.8 °F 93% 29.87 in 3.0 mi South 8.1 mph - N/A   Overcast
12:53 PM 37.0 °F 29.8 °F 34.0 °F 89% 29.91 in 6.0 mi SSW 10.4 mph - N/A   Overcast
1:16 PM 37.4 °F 28.2 °F 33.8 °F 87% 29.87 in 7.0 mi SW 16.1 mph 20.7 mph 0.01 in   Overcast
1:53 PM 37.9 °F 29.6 °F 34.0 °F 86% 29.90 in 6.0 mi SSW 13.8 mph 20.7 mph 0.01 in   Overcast
2:53 PM 37.9 °F 28.9 °F 34.0 °F 86% 29.92 in 5.0 mi SW 16.1 mph 23.0 mph N/A   Overcast
3:27 PM 37.4 °F 28.5 °F 33.8 °F 87% 29.89 in 8.0 mi SW 15.0 mph - N/A   Overcast
3:53 PM 39.0 °F 30.3 °F 34.0 °F 82% 29.93 in 9.0 mi SW 16.1 mph 19.6 mph N/A   Overcast
4:02 PM 37.4 °F 29.8 °F 33.8 °F 87% 29.90 in 9.0 mi SW 11.5 mph 20.7 mph N/A   Overcast
4:53 PM 37.0 °F 28.5 °F 32.0 °F 82% 29.94 in 8.0 mi WSW 13.8 mph - N/A   Overcast
5:53 PM 36.0 °F 27.1 °F 30.9 °F 82% 29.96 in 8.0 mi WSW 13.8 mph 23.0 mph 0.00 in   Overcast
6:53 PM 35.1 °F 27.9 °F 30.9 °F 85% 29.97 in 7.0 mi SW 9.2 mph - N/A   Overcast
7:33 PM 35.6 °F 28.6 °F 30.2 °F 81% 29.95 in 6.0 mi SW 9.2 mph - N/A   Overcast
7:53 PM 35.1 °F 27.9 °F 30.9 °F 85% 29.98 in 8.0 mi SSW 9.2 mph - N/A   Overcast
8:53 PM 35.1 °F 28.6 °F 30.0 °F 82% 29.97 in 10.0 mi SSW 8.1 mph - N/A   Overcast
9:53 PM 35.1 °F 27.4 °F 28.0 °F 76% 29.97 in 10.0 mi SW 10.4 mph - N/A   Overcast
10:53 PM 35.1 °F 28.6 °F 28.0 °F 76% 29.96 in 10.0 mi SSW 8.1 mph - N/A   Overcast
11:04 PM 35.6 °F 28.6 °F 28.4 °F 75% 29.94 in 10.0 mi SSW 9.2 mph - N/A   Overcast
11:50 PM 35.6 °F 28.0 °F 28.4 °F 75% 29.92 in 10.0 mi SW 10.4 mph - N/A   Overcast
11:53 PM 35.1 °F 27.4 °F 28.0 °F 76% 29.95 in 10.0 mi SW 10.4 mph - N/A   Overcast